"Pseudo-MPEC" for A108Z7t

Created 2018 Oct 19 3:18:04 UT using Find_Orb

Click here for an explanation of pseudo-MPECs

 
 Astrometry: 
     A108Z7t  C2018 10 03i0Astrometry;979N,e!@cRo7l\DTNg(we^p^-EW[hhP[Yi0?Te_T05
     A108Z7t  C2018 10 03q=.cdjasN!p:_@Rl?redacted;/M.wXCsee0G-OVMhMjwj.AR'n(T05
     A108Z7t  C2018 10 03dtA+L3J\:23r0Dt=M*j15mwhTX]4:!/[`[Heqcw+5a)cY0mNEOCPT05
     A108Z7t  C2018 10 05.16960 00 30 48.17 -19 52 58.4          21.0 GVNEOCPI52
     A108Z7t  C2018 10 05.16978 00 30 48.04 -19 53 03.2          19.5 GVNEOCPI52
     A108Z7t  C2018 10 05.16996 00 30 47.98 -19 53 05.5          20.5 GVNEOCPI52

Station data:
(I52) Steward Observatory, Mt. Lemmon Station  (N32.442547 W110.788920)
   US/Arizona.  Observers B. M. Africano, E. J. Christensen, D. C. Fuls, A.
   R. Gibbs, A. D. Grauer, J. A. Johnson, R. A. Kowalski, S. M. Larson, G. J.
   Leonard, R. L. Seaman, F. C. Shelly. 1.0-m reflector + CCD.
(T05) ATLAS-HKO, Haleakala  (N20.707573 W156.257010)  US/Hawaii.  Observers
   L. Denneau, A. Heinze, H. Weiland, B. Stalder, J. Tonry, A. Sherstyuk.
   Measurers L. Denneau, A. Heinze, J. Tonry. 0.5-m f/2.0 Schmidt + CCD.

Orbital elements:  A108Z7t
   Perihelion 2018 Jun 26.709560 +/- 0.242 TT = 17:01:46 (JD 2458296.209560)
Epoch 2018 Oct  5.0 TT = JDT 2458396.5   Earth MOID: 0.0038   Ve: 0.0007
M 116.12272 +/- 0.23                (J2000 ecliptic)          AutoNEOCP
n   1.15786437 +/- 0.000533         Peri.   46.08656 +/- 0.08
a   0.89818180 +/- 0.000275         Node   189.72414 +/- 0.00053
e   0.2149193 +/- 0.00142           Incl.    8.94398 +/- 0.06
P   0.85/310.91d           H 28.1   G  0.15   U  7.7  
q 0.70514511 +/- 0.00147    Q 1.09121849 +/- 0.000989
From 6 observations 2018 Oct. 3-5 (40.1 hr); mean residual 0".39
Residuals in arcseconds: 
181003 T05  .18+  .03+    181003 T05  .18+  .04+    181005 I52  .33-  .83-    
181003 T05  .36-  .07-    181005 I52  .08-  .05+    181005 I52  .41+  .79+    

Ephemerides (geocentric):
Date (UTC) HH   RA              Dec         delta   r     elong  mag " sig PA
---- -- -- --  -------------   -----------  ------ ------ -----  --- ---- ---
2018 10 19 03  00 10 46.653   -33 49 44.60  .07335 1.0467 132.0 24.2 22.7  39
2018 10 19 04  00 10 46.611   -33 49 54.60  .07353 1.0468 132.0 24.2 22.7  39
2018 10 19 05  00 10 46.575   -33 50 04.43  .07371 1.0468 132.0 24.2 22.7  39
2018 10 19 06  00 10 46.546   -33 50 14.08  .07389 1.0469 132.0 24.2 22.7  39
2018 10 19 07  00 10 46.523   -33 50 23.55  .07408 1.0470 131.9 24.2 22.7  39
2018 10 19 08  00 10 46.505   -33 50 32.85  .07426 1.0471 131.9 24.2 22.7  39
2018 10 19 09  00 10 46.494   -33 50 41.97  .07444 1.0472 131.9 24.2 22.7  39
2018 10 19 10  00 10 46.489   -33 50 50.91  .07462 1.0473 131.8 24.3 22.7  38
2018 10 19 11  00 10 46.490   -33 50 59.69  .07481 1.0474 131.8 24.3 22.7  38
2018 10 19 12  00 10 46.497   -33 51 08.29  .07499 1.0475 131.8 24.3 22.7  38
2018 10 19 13  00 10 46.510   -33 51 16.72  .07517 1.0475 131.7 24.3 22.7  38
2018 10 19 14  00 10 46.529   -33 51 24.98  .07536 1.0476 131.7 24.3 22.7  38
2018 10 19 15  00 10 46.554   -33 51 33.08  .07554 1.0477 131.7 24.3 22.7  38
2018 10 19 16  00 10 46.585   -33 51 41.00  .07572 1.0478 131.6 24.3 22.7  38
2018 10 19 17  00 10 46.622   -33 51 48.76  .07590 1.0479 131.6 24.3 22.7  38
2018 10 19 18  00 10 46.664   -33 51 56.35  .07609 1.0480 131.6 24.3 22.7  38
2018 10 19 19  00 10 46.712   -33 52 03.78  .07627 1.0481 131.5 24.3 22.7  38
2018 10 19 20  00 10 46.767   -33 52 11.05  .07645 1.0482 131.5 24.3 22.7  38
2018 10 19 21  00 10 46.827   -33 52 18.15  .07663 1.0482 131.5 24.3 22.7  38
2018 10 19 22  00 10 46.892   -33 52 25.09  .07682 1.0483 131.5 24.3 22.7  38
2018 10 19 23  00 10 46.964   -33 52 31.87  .07700 1.0484 131.4 24.3 22.7  38
2018 10 20 00  00 10 47.041   -33 52 38.48  .07718 1.0485 131.4 24.3 22.7  38
2018 10 20 01  00 10 47.123   -33 52 44.94  .07737 1.0486 131.4 24.3 22.7  38
2018 10 20 02  00 10 47.212   -33 52 51.25  .07755 1.0487 131.3 24.4 22.7  38
2018 10 20 03  00 10 47.306   -33 52 57.39  .07773 1.0488 131.3 24.4 22.7  38
2018 10 20 04  00 10 47.406   -33 53 03.38  .07792 1.0488 131.3 24.4 22.7  38
2018 10 20 05  00 10 47.511   -33 53 09.21  .07810 1.0489 131.2 24.4 22.7  38
2018 10 20 06  00 10 47.622   -33 53 14.89  .07828 1.0490 131.2 24.4 22.7  38
2018 10 20 07  00 10 47.738   -33 53 20.41  .07846 1.0491 131.2 24.4 22.7  38
2018 10 20 08  00 10 47.860   -33 53 25.78  .07865 1.0492 131.1 24.4 22.7  38
2018 10 20 09  00 10 47.987   -33 53 31.00  .07883 1.0493 131.1 24.4 22.7  38
2018 10 20 10  00 10 48.120   -33 53 36.07  .07901 1.0494 131.1 24.4 22.7  38
2018 10 20 11  00 10 48.258   -33 53 40.99  .07920 1.0495 131.1 24.4 22.7  38
2018 10 20 12  00 10 48.402   -33 53 45.76  .07938 1.0495 131.0 24.4 22.7  38
2018 10 20 13  00 10 48.551   -33 53 50.38  .07956 1.0496 131.0 24.4 22.7  38
2018 10 20 14  00 10 48.705   -33 53 54.85  .07975 1.0497 131.0 24.4 22.7  38
2018 10 20 15  00 10 48.865   -33 53 59.18  .07993 1.0498 130.9 24.4 22.7  38
2018 10 20 16  00 10 49.030   -33 54 03.36  .08011 1.0499 130.9 24.4 22.7  38
2018 10 20 17  00 10 49.201   -33 54 07.39  .08029 1.0500 130.9 24.4 22.7  38
2018 10 20 18  00 10 49.376   -33 54 11.28  .08048 1.0501 130.8 24.4 22.7  38
2018 10 20 19  00 10 49.557   -33 54 15.03  .08066 1.0501 130.8 24.5 22.7  38
2018 10 20 20  00 10 49.744   -33 54 18.63  .08084 1.0502 130.8 24.5 22.7  38
2018 10 20 21  00 10 49.935   -33 54 22.09  .08103 1.0503 130.7 24.5 22.7  38
2018 10 20 22  00 10 50.132   -33 54 25.41  .08121 1.0504 130.7 24.5 22.7  38
2018 10 20 23  00 10 50.334   -33 54 28.59  .08139 1.0505 130.7 24.5 22.8  38
2018 10 21 00  00 10 50.541   -33 54 31.63  .08158 1.0506 130.7 24.5 22.8  38
2018 10 21 01  00 10 50.753   -33 54 34.53  .08176 1.0506 130.6 24.5 22.8  38
2018 10 21 02  00 10 50.970   -33 54 37.29  .08194 1.0507 130.6 24.5 22.8  38